Regional Weather Roundup
Issued by NWS Wakefield, VA

Home | Current Version | Previous Version | Graphics & Text | Print | Product List | Glossary On
Versions: 1 2 3 4 5 6 7 8 9 10 11 12 13 14 15 16 17 18 19 20 21 22 23 24 25 26 27 28 29 30 31 32 33 34 35 36 37 38 39 40 41 42 43 44 45 46 47 48 49 50
000
ASUS41 KAKQ 121115
RWRAKQ

REGIONAL WEATHER ROUNDUP
NATIONAL WEATHER SERVICE WAKEFIELD VA
600 AM EST TUE DEC 12 2017

Note: "fair" indicates few or no clouds below 12,000 feet with no
significant weather and/or obstructions to visibility. * = Denotes
station may not report precipitation (e.g., rain,snow,etc.),
thunder or fog.

VAZ042-051-052>054-056-121200-
NORTHERN VIRGINIA

CITY           SKY/WX    TMP DP  RH WIND       PRES   REMARKS
WASH NATIONAL  CLOUDY    42  32  67 S8        29.64F
DULLES         CLOUDY    38  31  76 S9        29.61F
FORT BELVOIR   CLOUDY    41  31  67 SE5       29.63F
QUANTICO       CLOUDY    42  33  70 SW10      29.66
FREDERICKSBRG* MOCLDY    40  33  74 S3        29.65F
STAFFORD*      CLOUDY    38  31  76 S5        29.68F
WARRENTON      CLOUDY    41  28  60 S7        29.61F
CULPEPER*      CLOUDY    40  30  66 S6        29.63F
MANASSAS*      MOCLDY    37  31  78 S6        29.63F
LEESBURG*      CLOUDY    37  32  81 S5        29.61F
WINCHESTER     CLOUDY    37  28  70 SW6       29.58F
FRONT ROYAL*   CLOUDY    37  30  75 CALM      29.58S
LURAY*         CLOUDY    43  32  65 SW10      29.58F
$$

VAZ048-049-060>072-079>083-121200-
CENTRAL AND SOUTH CENTRAL VIRGINIA

CITY           SKY/WX    TMP DP  RH WIND       PRES   REMARKS
RICHMOND       CLOUDY    40  32  73 S10       29.68F
CHESTERFIELD*  NOT AVBL
PETERSBURG*    CLOUDY    37  30  75 S5        29.70F
HANOVER        CLOUDY    39  31  72 S7        29.69F
TAPPAHANNOCK*    N/A    N/A N/A N/A MISG        N/A
QUINTON*       FAIR      40  32  72 S5        29.68F
CHARLOTTSVILLE MOCLDY    38  30  73 SW8       29.62F
GORDONSVILLE*  CLOUDY    36  31  82 SW6       29.62F
ORANGE*        CLOUDY    34  30  86 CALM      29.63F
LOUISA*        CLOUDY    38  29  71 S8        29.68F
BUMPASS*       FAIR      39  30  71 S6        29.65F
FARMVILLE*     CLOUDY    39  34  81 SW6       29.66F
CREWE*         FAIR      37  33  85 S3        29.69S
FORT PICKETT*  NOT AVBL
CHASE CITY*    FAIR      37  32  82 CALM      29.71S
CLARKSVILLE*   FAIR      37  32  81 S7        29.71F
SOUTH HILL*    CLOUDY    37  33  83 S8        29.76F
LAWRENCEVILLE* FAIR      38  32  78 SW6       29.71F
EMPORIA*       CLOUDY    37  32  81 S3        29.74S
$$

VAZ088>098-121200-
SOUTHEAST VIRGINIA

CITY           SKY/WX    TMP DP  RH WIND       PRES   REMARKS
NORFOLK        PTCLDY    43  32  65 S14       29.73F
VIRGINIA BEACH CLOUDY    42  31  64 S9        29.74F
NORFOLK NAVAL  MOCLDY    43  31  62 S10       29.73F
WEST POINT*    CLOUDY   N/A N/A N/A SE5       29.72F
SALUDA*        FAIR      42  33  70 S7        29.69F
NEWPORT NEWS   CLOUDY    43  32  65 S12       29.71F
LANGLEY AFB    CLOUDY    43  33  67 S14       29.71F
FORT EUSTIS    CLOUDY    43  32  67 S8        29.69F
WILLIAMSBURG*  MOCLDY    45  34  65 S8G16     29.72F
HR EXEC AP*    FAIR      40  32  73 S12       29.72F
FRANKLIN*      MOCLDY    38  32  78 S10       29.73F
US460-WAKEFLD  CLOUDY    40  32  73 S5        29.72F
$$

VAZ020-022-025-037-045-121200-
WEST CENTRAL AND SOUTHWEST VIRGINIA

CITY           SKY/WX    TMP DP  RH WIND       PRES   REMARKS
STAUNTON*      CLOUDY    34  28  79 SW6       29.62F
WAYNESBORO*    CLOUDY    37  29  72 CALM      29.60F
HOT SPRINGS VA PTCLDY    37  24  61 W24G30    29.56F WCI  25
LYNCHBURG      CLOUDY    33  29  85 S3        29.66F
DANVILLE       PTCLDY    35  32  88 S6        29.71F
SOUTH BOSTON*  FAIR      34  30  85 SW5       29.70F
MARTINSVILLE   PTCLDY    28  27  94 CALM      29.72F
ROANOKE        PTCLDY    39  29  67 CALM      29.66F
BLACKSBURG     CLEAR     32  28  86 CALM      29.68F
DUBLIN*        CLOUDY    34  28  79 E3        29.67F
MARION*        CLOUDY    39  29  67 W18G29    29.69F
HILLSVILLE*    CLOUDY    39  30  68 W10G21    29.65S
RICHLANDS*     PTSUNNY   40   8  26 W10G18    29.71S
WISE*          CLOUDY    37  30  75 W13       29.75S
ABINGDON*      CLOUDY    39  32  76 W5        29.74S
$$

MDZ021>025-VAZ099-100-121200-
SOUTHERN MARYLAND AND THE DELMARVA PENINSULA

CITY           SKY/WX    TMP DP  RH WIND       PRES   REMARKS
PATUXENT RIVER CLOUDY    44  32  62 SW13G18   29.66F
BAY BRIDGE APT CLOUDY    45  36  70 S10G16    29.65F
LEONARDTOWN    CLOUDY    41  32  70 SW6       29.68F
DOVER          CLOUDY    41  39  90 SE9       29.67F
GEORGETOWN     PTCLDY    44  33  65 S9        29.70F
EASTON         CLEAR     45  27  49 S8        29.69F
CAMBRIDGE      PTCLDY    43  37  81 S10       29.68F
SALISBURY      PTCLDY    41  34  76 S7        29.70F
OCEAN CITY     CLOUDY    48  39  71 SW10      29.71F
WALLOPS ISLAND CLOUDY    47  38  71 S16       29.72F
ACCOMACK*      PTCLDY    45  35  67 S9        29.71F
$$

NCZ012>017-030>032-121200-
NORTH CENTRAL AND EASTERN NORTH CAROLINA

CITY           SKY/WX    TMP DP  RH WIND       PRES   REMARKS
ROANOKE RAPIDS FAIR      37  32  81 CALM      29.73F
RALEIGH        CLOUDY    39  33  79 SW12      29.74F
ELIZABETH CITY PTCLDY    43  38  82 S10       29.77F
AHOSKIE*       CLOUDY    35  32  89 S5        29.75F
EDENTON*       PTCLDY    42  36  79 S10       29.79F
CURRITUCK*     PTCLDY    39  36  86 S3        29.78F
KILL DEVIL HLS PTCLDY    43  34  71 SW5       29.79F
MANTEO         PTCLDY    42  36  79 SW13      29.81F
CAPE HATTERAS  CLEAR     55  44  66 SW12G22   29.83F
TARBORO*       NOT AVBL
GOLDSBORO      PTCLDY    42  35  74 S6        29.77F
WASHINGTON     CLEAR     39  34  82 S5        29.79F
GREENVILLE     PTCLDY    41  34  75 SW8       29.80F
NEW BERN       CLEAR     42  38  85 S9        29.81F
WILMINGTON     CLEAR     49  40  71 SW10      29.83F
$$

VAZ048-121200-
ELSEWHERE

CITY           SKY/WX    TMP DP  RH WIND       PRES   REMARKS
HARRISBURG PA  CLOUDY    36  32  85 SE3       29.60F
BALTIMORE      CLOUDY    40  32  73 S6        29.63F
ANNAPOLIS      CLOUDY    44  34  67 S6        29.64F
ANDREWS AFB    MOCLDY    41  30  66 SW10      29.63F
PHILADELPHIA   CLOUDY    43  34  70 SE12      29.66F
HENDERSON NC   CLOUDY    34  29  82 CALM      29.72S
GREENSBORO     MOCLDY    37  33  85 SW5       29.70F
ROCKY MOUNT    PTCLDY    39  35  86 S7        29.76F
$$

VAZ100-121200-
MARINE

STATION/POSITION TIME  TEMP    WIND        PRES    WAVE   SWELL
                       AIR SEA DIR/SP/G            HT/PER HT/PER
                 (UTC) (F)     (DEG/KT/KT) (MB)    (FT/S) (FT/S)
BRANDYWINE LGT   1042   48     190/ 23/ 25 1005.8F
CAPE MAY NJ      1048   49 44  190/ 13/ 21 1005.3F
LEWES DE         1042   47 47  180/  8/ 17 1005.5F
15NM E FENWICK I 0950   51 53  190/ 17/ 19 1008.1    4/ 5   2/ 8
OCEAN-CITY-INLET 1042   50 49  200/ 15/ 21 1006.3F
WACHAPREAGUE VA  1048   45 43  200/ 10/ 14 1006.2F
THOMAS POINT MD  1100   45 47  190/ 19/ 21   N/A
GOOSES REEF MD   1100   45 47  180/ 17/ 21 1004.5    2/ 3
COVE POINT MD    1048   44     210/ 15/ 19 1005.0F
SOLOMONS ISLAND  1048   45 48  200/ 14/ 16 1004.1F
BISHOPS HEAD MD  1048   45 42  180/ 14/ 17 1005.1F
PINEY POINT MD   1048          200/ 12/ 13   N/A
POTOMAC MD       1100   46 48  180/ 12/ 16 1004.2    2/ 2
CAMBRIDGE MD     1042   43 45              1005.5F
LEWISETTA VA     1048   43 44  210/ 10/ 13 1004.7F
RAPPAHANNOCK LGT 1048          180/ 20/ 24 1006.4F
STINGRAY PT      1050   45     210/ 16/ 17 1005.7F
YORK RVR RNG VA  1048   46     210/ 14/ 17 1006.5F
YORKTOWN VA      1048   45 50  210/ 11/ 15 1005.5F
JAMESTOWN VA     1100      47  210/ 10/ 16   N/A
DOMINION TERM VA 1048   44     180/ 12/ 15 1006.3F
KIPTOPEKE VA     1048      48  210/ 17/ 20   N/A
CAPE HENRY VA    1048   43     180/  9/ 14   N/A
WILLOUBY STN VA  1042                      1005.7F
S CRANEY ISL VA  1048   43     190/ 12/ 14 1006.5F
CAPE HENRY BUOY  1030      53                N/A     3/ 4
1ST LANDING BUOY 1100   45 51  200/ 17/ 21 1006.7    1/ 2
CAPE CHARLES BUO 1051      53                N/A     3/ 4
64NM E OF VA BCH 0950   55 60  230/ 16/ 21 1009.3    3/ 8   2/ 8
DUCK PIER NC     1048   45 55  190/  9/ 11 1008.2F
44100 DUCK FRF   1045      55                N/A     2/ 3
44056 DUCK FRF   1030      54                N/A     1/ 9
OREGON INLET NC  1042   48 46  200/ 14/ 16 1009.4F
HATTERAS NC      1048   55 54  240/ 13/ 17 1009.7F
DIAMOND SHLS NC  1050   61 74  230/ 21/ 27 1010.4F   4/ 5   2/ 9
CAPE LOOKOUT NC  1100          240/ 15/ 19 1010.4F
$$



USA.gov is the U.S. government's official web portal to all federal, state and local government web resources and services.